| time (UTC) | temp F | wind direction | speed MPH | gust MPH | rain 1hr in | rain 24hr in | rain mn in | humidity % | barometer mb |
| 20260906094223 | 71 | 271 | 3.0 | 6.0 | 0.00 | 0.03 | 0.00 | 53 | 923.6 |
| 20260906091223 | 69 | 290 | 3.0 | 6.0 | 0.00 | 0.03 | 0.00 | 55 | 923.6 |
| 20260906084223 | 67 | 304 | 0.0 | 5.0 | 0.00 | 0.03 | 0.00 | 56 | 923.6 |
| 20260906081223 | 65 | 0 | 0.0 | 0.0 | 0.00 | 0.03 | 0.00 | 58 | 923.7 |
| 20260906074223 | 61 | 0 | 0.0 | 0.0 | 0.00 | 0.09 | 0.00 | 69 | 923.9 |
| 20260906071223 | 59 | 0 | 0.0 | 0.0 | 0.00 | 0.10 | 0.00 | 74 | 923.8 |
| 20260906064223 | 57 | 0 | 0.0 | 0.0 | 0.00 | 0.10 | 0.00 | 80 | 923.8 |
| 20260906061223 | 56 | 0 | 0.0 | 0.0 | 0.00 | 0.10 | 0.00 | 80 | 923.6 |
| 20260906054223 | 56 | 0 | 0.0 | 0.0 | 0.00 | 0.10 | 0.00 | 79 | 923.5 |
| 20260906051223 | 56 | 0 | 0.0 | 0.0 | 0.00 | 0.10 | 0.00 | 79 | 923.4 |
| 20260906044222 | 57 | 0 | 0.0 | 0.0 | 0.00 | 0.10 | 0.00 | 79 | 923.2 |
| 20260906041223 | 58 | 0 | 0.0 | 0.0 | 0.00 | 0.10 | 0.00 | 79 | 923.3 |
| 20260906034223 | 59 | 0 | 0.0 | 0.0 | 0.00 | 0.10 | 0.00 | 80 | 923.1 |
| 20260906031223 | 59 | 0 | 0.0 | 0.0 | 0.00 | 0.10 | 0.00 | 79 | 923.0 |
| 20260906024223 | 60 | 0 | 0.0 | 0.0 | 0.00 | 0.10 | 0.00 | 78 | 923.1 |
| 20260906021223 | 60 | 0 | 0.0 | 0.0 | 0.00 | 0.10 | 0.00 | 79 | 923.1 |
| 20260906014223 | 60 | 0 | 0.0 | 0.0 | 0.00 | 0.10 | 0.00 | 78 | 923.2 |
| 20260906011223 | 60 | 0 | 0.0 | 0.0 | 0.00 | 0.10 | 0.00 | 78 | 923.1 |
| 20260906004223 | 60 | 0 | 0.0 | 0.0 | 0.00 | 0.10 | 0.00 | 78 | 923.1 |
| 20260906001223 | 60 | 0 | 0.0 | 0.0 | 0.00 | 0.10 | 0.00 | 79 | 923.1 |
| 20260905234222 | 60 | 0 | 0.0 | 0.0 | 0.00 | 0.10 | 0.00 | 79 | 923.1 |
| 20260905231223 | 60 | 0 | 0.0 | 0.0 | 0.00 | 0.10 | 0.00 | 78 | 923.1 |
| 20260905224222 | 60 | 0 | 0.0 | 0.0 | 0.00 | 0.10 | 0.00 | 79 | 923.0 |
| 20260905221223 | 60 | 0 | 0.0 | 0.0 | 0.00 | 0.10 | 0.00 | 79 | 923.1 |
| 20260905214222 | 60 | 0 | 0.0 | 0.0 | 0.00 | 0.10 | 0.10 | 79 | 922.8 |
| 20260905211222 | 60 | 0 | 0.0 | 0.0 | 0.00 | 0.10 | 0.10 | 79 | 922.6 |
| 20260905204223 | 60 | 0 | 0.0 | 0.0 | 0.00 | 0.10 | 0.10 | 79 | 922.6 |
| 20260905201222 | 60 | 0 | 0.0 | 0.0 | 0.00 | 0.10 | 0.10 | 78 | 922.6 |
| 20260905194223 | 61 | 0 | 0.0 | 0.0 | 0.00 | 0.10 | 0.10 | 78 | 922.4 |
| 20260905191222 | 61 | 0 | 0.0 | 0.0 | 0.00 | 0.10 | 0.10 | 77 | 922.3 |
| 20260905184223 | 61 | 0 | 0.0 | 0.0 | 0.00 | 0.10 | 0.10 | 76 | 921.7 |
| 20260905181222 | 62 | 0 | 0.0 | 0.0 | 0.00 | 0.10 | 0.10 | 74 | 921.5 |
| 20260905174222 | 63 | 0 | 0.0 | 0.0 | 0.00 | 0.10 | 0.10 | 73 | 921.4 |
| 20260905171223 | 64 | 0 | 0.0 | 0.0 | 0.00 | 0.10 | 0.10 | 70 | 921.4 |
| 20260905164223 | 65 | 0 | 0.0 | 0.0 | 0.00 | 0.10 | 0.10 | 67 | 921.3 |
| 20260905161223 | 68 | 0 | 0.0 | 0.0 | 0.00 | 0.10 | 0.10 | 61 | 921.2 |